When you browse on this site, cookies collect data to enhance your experience and personalize the content and advertising you see.
Visit our Privacy Policy to learn more. By continuing to use the site, you agree to this use of cookies and data.
  • In Switzerland
  • List of Countries
  • For 7 days
  • Water Temperature
  • Weather Map
  • Weather Widgets
  • user-avatar
    Login

    Hourly Weather Jalalabad

    Today, 24 September, Tuesday

    Time Temperature Precipitation Wind Pressure Humidity
    00:00 +31°C° 0 mm 1 mps 710 mmHg 54%
    01:00 +31°C° 0 mm 1 mps 710 mmHg 56%
    02:00 +30°C° 0 mm 1 mps 710 mmHg 58%
    03:00 +30°C° 0 mm 1 mps 710 mmHg 59%
    04:00 +29°C° 0 mm 1 mps 710 mmHg 61%
    05:00 +29°C° 0 mm 1 mps 711 mmHg 63%
    06:00 +30°C° 0 mm 1 mps 711 mmHg 61%
    07:00 +30°C° 0 mm 1 mps 711 mmHg 59%
    08:00 +31°C° 0 mm 1 mps 712 mmHg 56%
    09:00 +32°C° 0 mm 1 mps 712 mmHg 53%
    10:00 +33°C° 0 mm 1 mps 712 mmHg 49%
    11:00 +35°C° 0 mm 2 mps 712 mmHg 45%
    12:00 +36°C° 0 mm 2 mps 711 mmHg 41%
    13:00 +37°C° 0 mm 2 mps 711 mmHg 36%
    14:00 +38°C° 0 mm 2 mps 710 mmHg 32%
    15:00 +38°C° 0 mm 3 mps 710 mmHg 31%
    16:00 +38°C° 0 mm 3 mps 710 mmHg 30%
    17:00 +38°C° 0 mm 3 mps 709 mmHg 30%
    18:00 +37°C° 0 mm 3 mps 710 mmHg 33%
    19:00 +36°C° 0 mm 2 mps 710 mmHg 37%
    20:00 +35°C° 0 mm 2 mps 710 mmHg 40%
    21:00 +34°C° 0 mm 2 mps 710 mmHg 43%
    22:00 +33°C° 0 mm 1 mps 711 mmHg 45%
    23:00 +32°C° 0 mm 1 mps 711 mmHg 48%

    Tomorrow, 25 September, Wednesday

    Time Temperature Precipitation Wind Pressure Humidity
    00:00 +32°C° 0 mm 1 mps 710 mmHg 49%
    01:00 +31°C° 0 mm 1 mps 710 mmHg 51%
    02:00 +31°C° 0 mm 1 mps 710 mmHg 53%
    03:00 +30°C° 0 mm 1 mps 710 mmHg 54%
    04:00 +30°C° 0 mm 1 mps 710 mmHg 56%
    05:00 +29°C° 0 mm 1 mps 711 mmHg 58%
    06:00 +30°C° 0 mm 1 mps 711 mmHg 55%
    07:00 +31°C° 0 mm 1 mps 712 mmHg 53%
    08:00 +32°C° 0 mm 1 mps 712 mmHg 50%
    09:00 +33°C° 0 mm 1 mps 712 mmHg 47%
    10:00 +35°C° 0 mm 2 mps 712 mmHg 43%
    11:00 +36°C° 0 mm 2 mps 712 mmHg 40%
    12:00 +36°C° 0 mm 2 mps 712 mmHg 37%
    13:00 +37°C° 0 mm 2 mps 711 mmHg 34%
    14:00 +38°C° 0 mm 2 mps 711 mmHg 31%
    15:00 +38°C° 0 mm 2 mps 710 mmHg 30%
    16:00 +38°C° 0 mm 3 mps 710 mmHg 29%
    17:00 +38°C° 0 mm 3 mps 710 mmHg 28%
    18:00 +37°C° 0 mm 3 mps 711 mmHg 32%
    19:00 +36°C° 0 mm 2 mps 711 mmHg 36%
    20:00 +35°C° 0 mm 2 mps 711 mmHg 40%
    21:00 +33°C° 0 mm 1 mps 711 mmHg 42%
    22:00 +33°C° 0 mm 1 mps 711 mmHg 45%
    23:00 +32°C° 0 mm 1 mps 711 mmHg 47%

    Day after tomorrow, 26 September, Thursday

    Time Temperature Precipitation Wind Pressure Humidity
    00:00 +32°C° 0 mm 1 mps 711 mmHg 49%
    01:00 +31°C° 0 mm 1 mps 711 mmHg 50%
    02:00 +31°C° 0 mm 1 mps 711 mmHg 52%
    03:00 +30°C° 0 mm 1 mps 711 mmHg 54%
    04:00 +30°C° 0 mm 1 mps 712 mmHg 55%
    05:00 +28°C° 0 mm 0 mps 712 mmHg 57%
    06:00 +28°C° 0 mm 0 mps 712 mmHg 54%
    07:00 +29°C° 0 mm 0 mps 712 mmHg 52%
    08:00 +30°C° 0 mm 0 mps 713 mmHg 49%
    09:00 +33°C° 0 mm 1 mps 713 mmHg 45%
    10:00 +34°C° 0 mm 1 mps 713 mmHg 42%
    11:00 +36°C° 0 mm 2 mps 713 mmHg 39%
    12:00 +37°C° 0 mm 2 mps 712 mmHg 35%
    13:00 +38°C° 0 mm 2 mps 711 mmHg 32%
    14:00 +39°C° 0 mm 2 mps 711 mmHg 28%
    15:00 +39°C° 0 mm 2 mps 711 mmHg 27%
    16:00 +39°C° 0 mm 3 mps 710 mmHg 26%
    17:00 +39°C° 0 mm 3 mps 710 mmHg 25%
    18:00 +38°C° 0 mm 3 mps 710 mmHg 30%
    19:00 +36°C° 0 mm 2 mps 711 mmHg 35%
    20:00 +35°C° 0 mm 2 mps 711 mmHg 39%
    21:00 +35°C° 0 mm 2 mps 711 mmHg 42%
    22:00 +34°C° 0 mm 2 mps 711 mmHg 44%
    23:00 +33°C° 0 mm 1 mps 711 mmHg 47%

    27 September, Friday

    Time Temperature Precipitation Wind Pressure Humidity
    00:00 +32°C° 0 mm 1 mps 711 mmHg 49%
    01:00 +32°C° 0 mm 1 mps 711 mmHg 51%
    02:00 +31°C° 0 mm 1 mps 711 mmHg 53%
    03:00 +29°C° 0 mm 0 mps 711 mmHg 54%
    04:00 +28°C° 0 mm 0 mps 711 mmHg 56%
    05:00 +28°C° 0 mm 0 mps 711 mmHg 57%
    06:00 +28°C° 0 mm 0 mps 711 mmHg 55%
    07:00 +31°C° 0 mm 1 mps 711 mmHg 52%
    08:00 +32°C° 0 mm 1 mps 712 mmHg 49%
    09:00 +33°C° 0 mm 1 mps 712 mmHg 46%
    10:00 +35°C° 0 mm 2 mps 712 mmHg 43%
    11:00 +36°C° 0 mm 2 mps 711 mmHg 41%
    12:00 +37°C° 0 mm 3 mps 711 mmHg 37%
    13:00 +38°C° 0 mm 3 mps 710 mmHg 34%
    14:00 +38°C° 0 mm 3 mps 709 mmHg 31%
    15:00 +38°C° 0 mm 3 mps 709 mmHg 32%
    16:00 +38°C° 0 mm 4 mps 709 mmHg 33%
    17:00 +38°C° 0 mm 4 mps 709 mmHg 35%
    18:00 +37°C° 0 mm 3 mps 709 mmHg 39%
    19:00 +36°C° 0 mm 3 mps 709 mmHg 44%
    20:00 +34°C° 0 mm 2 mps 709 mmHg 48%
    21:00 +34°C° 0 mm 2 mps 710 mmHg 51%
    22:00 +32°C° 0 mm 1 mps 710 mmHg 53%
    23:00 +32°C° 0 mm 1 mps 710 mmHg 56%

    28 September, Saturday

    Time Temperature Precipitation Wind Pressure Humidity
    00:00 +31°C° 0 mm 1 mps 710 mmHg 58%
    01:00 +31°C° 0 mm 1 mps 709 mmHg 60%
    02:00 +30°C° 0 mm 1 mps 709 mmHg 62%
    03:00 +30°C° 0 mm 1 mps 709 mmHg 64%
    04:00 +27°C° 0 mm 0 mps 709 mmHg 66%
    05:00 +27°C° 0 mm 0 mps 708 mmHg 67%
    06:00 +29°C° 0 mm 1 mps 709 mmHg 65%
    07:00 +30°C° 0 mm 1 mps 709 mmHg 62%
    08:00 +30°C° 0 mm 1 mps 709 mmHg 60%
    09:00 +31°C° 0 mm 1 mps 709 mmHg 55%
    10:00 +34°C° 0 mm 2 mps 709 mmHg 51%
    11:00 +35°C° 0 mm 2 mps 709 mmHg 46%
    12:00 +36°C° 0 mm 2 mps 708 mmHg 40%
    13:00 +37°C° 0 mm 2 mps 708 mmHg 34%
    14:00 +38°C° 0 mm 3 mps 707 mmHg 29%
    15:00 +38°C° 0 mm 3 mps 707 mmHg 30%
    16:00 +37°C° 0 mm 4 mps 707 mmHg 30%
    17:00 +37°C° 0 mm 5 mps 707 mmHg 31%
    18:00 +36°C° 0 mm 4 mps 707 mmHg 39%
    19:00 +34°C° 0 mm 4 mps 707 mmHg 46%
    20:00 +33°C° 0 mm 3 mps 708 mmHg 53%
    21:00 +31°C° 0 mm 3 mps 708 mmHg 57%
    22:00 +31°C° 0 mm 2 mps 709 mmHg 60%
    23:00 +30°C° 0 mm 2 mps 709 mmHg 63%

    29 September, Sunday

    Time Temperature Precipitation Wind Pressure Humidity
    00:00 +30°C° 0.6 mm 2 mps 709 mmHg 65%
    01:00 +29°C° 0.6 mm 1 mps 709 mmHg 67%
    02:00 +28°C° 0.6 mm 1 mps 709 mmHg 69%
    03:00 +28°C° 0.3 mm 1 mps 709 mmHg 71%
    04:00 +28°C° 0.3 mm 1 mps 708 mmHg 72%
    05:00 +27°C° 0.3 mm 1 mps 708 mmHg 74%
    06:00 +27°C° 0.2 mm 1 mps 708 mmHg 74%
    07:00 +28°C° 0.2 mm 1 mps 709 mmHg 73%
    08:00 +28°C° 0.2 mm 2 mps 709 mmHg 73%
    09:00 +29°C° 0.1 mm 2 mps 709 mmHg 68%
    10:00 +30°C° 0.1 mm 3 mps 709 mmHg 62%
    11:00 +31°C° 0.1 mm 3 mps 709 mmHg 57%
    12:00 +33°C° 0.1 mm 3 mps 709 mmHg 53%
    13:00 +33°C° 0.1 mm 3 mps 708 mmHg 49%
    14:00 +34°C° 0.1 mm 4 mps 708 mmHg 45%
    15:00 +34°C° 0 mm 4 mps 708 mmHg 48%
    16:00 +33°C° 0 mm 5 mps 708 mmHg 51%
    17:00 +33°C° 0 mm 6 mps 707 mmHg 53%
    18:00 +32°C° 0.1 mm 5 mps 708 mmHg 58%
    19:00 +30°C° 0.1 mm 4 mps 708 mmHg 62%
    20:00 +29°C° 0.1 mm 3 mps 709 mmHg 66%
    21:00 +29°C° 0.4 mm 3 mps 709 mmHg 67%
    22:00 +28°C° 0.4 mm 3 mps 709 mmHg 69%
    23:00 +28°C° 0.4 mm 3 mps 709 mmHg 70%
    Show more